Location: Peterborough
(44.3091°N, 78.3197°W)
Time: 16:30:27
(UTC-04:00)

Transit 4A - Pass Details

Date: 23 March 2023
Orbit: 864 x 980 km, 66.8° (Epoch: 04 June)

Event Time Altitude Azimuth Distance (km) Brightness Sun altitude
Rises 17:29:29 0° 323° (NW) 3,568 11.2 20.2°
Reaches altitude 10° 17:32:05 10° 317° (NW) 2,639 10.7 19.8°
Maximum altitude 17:37:51 44° 247° (WSW) 1,285 10.1 18.8°
Drops below altitude 10° 17:43:46 10° 177° (S) 2,693 10.6 17.8°
Sets 17:46:26 0° 171° (S) 3,647 11.1 17.3°
